date,time,SUV Intensity [MED/Hr],UV Index,Daily total [MED],Since Last [MED]
28/12/2022,00:01:03,0.001,0.0,0.0,0.0
28/12/2022,00:02:04,0.001,0.0,0.0,0.0
28/12/2022,00:03:04,0.001,0.0,0.0,0.0
28/12/2022,00:04:03,0.001,0.0,0.0,0.0
28/12/2022,00:05:04,0.000,0.0,0.0,0.0
28/12/2022,00:06:04,0.000,0.0,0.0,0.0
28/12/2022,00:07:04,0.001,0.0,0.0,0.0
28/12/2022,00:08:04,0.001,0.0,0.0,0.0
28/12/2022,00:09:04,0.000,0.0,0.0,0.0
28/12/2022,00:10:05,0.000,0.0,0.0,0.0
28/12/2022,00:11:04,-0.000,0.0,0.0,0.0
28/12/2022,00:12:03,0.000,0.0,0.0,0.0
28/12/2022,00:13:04,0.000,0.0,0.0,0.0
28/12/2022,00:14:03,-0.001,0.0,0.0,0.0
28/12/2022,00:15:04,0.000,0.0,0.0,0.0
28/12/2022,00:16:03,0.000,0.0,0.0,0.0
28/12/2022,00:17:04,0.000,0.0,0.0,0.0
28/12/2022,00:18:04,-0.000,0.0,0.0,0.0
28/12/2022,00:19:04,-0.000,0.0,0.0,0.0
28/12/2022,00:20:04,0.000,0.0,0.0,0.0
28/12/2022,00:21:03,-0.001,0.0,0.0,0.0
28/12/2022,00:22:03,-0.001,0.0,0.0,0.0
28/12/2022,00:23:04,0.000,0.0,0.0,0.0
28/12/2022,00:24:04,-0.000,0.0,0.0,0.0
28/12/2022,00:25:04,-0.001,0.0,0.0,0.0
28/12/2022,00:26:04,0.000,0.0,0.0,0.0
28/12/2022,00:27:04,0.001,0.0,0.0,0.0
28/12/2022,00:28:04,-0.001,0.0,0.0,0.0
28/12/2022,00:29:03,0.001,0.0,0.0,0.0
28/12/2022,00:30:04,0.000,0.0,0.0,0.0
28/12/2022,00:31:04,-0.000,0.0,0.0,0.0
28/12/2022,00:32:04,0.000,0.0,0.0,0.0
28/12/2022,00:33:04,0.000,0.0,0.0,0.0
28/12/2022,00:34:04,0.000,0.0,0.0,0.0
28/12/2022,00:35:04,0.001,0.0,0.0,0.0
28/12/2022,00:36:04,-0.000,0.0,0.0,0.0
28/12/2022,00:37:04,0.000,0.0,0.0,0.0
28/12/2022,00:38:04,-0.000,0.0,0.0,0.0
28/12/2022,00:39:04,0.000,0.0,0.0,0.0
28/12/2022,00:40:04,0.000,0.0,0.0,0.0
28/12/2022,00:41:04,0.001,0.0,0.0,0.0
28/12/2022,00:42:04,0.000,0.0,0.0,0.0
28/12/2022,00:43:04,0.000,0.0,0.0,0.0
28/12/2022,00:44:04,-0.000,0.0,0.0,0.0
28/12/2022,00:45:04,0.000,0.0,0.0,0.0
28/12/2022,00:46:04,-0.000,0.0,0.0,0.0
28/12/2022,00:47:04,0.000,0.0,0.0,0.0
28/12/2022,00:48:04,0.000,0.0,0.0,0.0
28/12/2022,00:49:03,0.001,0.0,0.0,0.0
28/12/2022,00:50:04,-0.000,0.0,0.0,0.0
28/12/2022,00:51:04,0.001,0.0,0.0,0.0
28/12/2022,00:52:04,0.000,0.0,0.0,0.0
28/12/2022,00:53:04,0.000,0.0,0.0,0.0
28/12/2022,00:54:04,0.001,0.0,0.0,0.0
28/12/2022,00:55:04,0.000,0.0,0.0,0.0
28/12/2022,00:56:04,0.000,0.0,0.0,0.0
28/12/2022,00:57:04,0.001,0.0,0.0,0.0
28/12/2022,00:58:03,0.001,0.0,0.0,0.0
28/12/2022,00:59:04,0.001,0.0,0.0,0.0
28/12/2022,01:00:03,0.000,0.0,0.0,0.0
28/12/2022,01:01:04,0.001,0.0,0.0,0.0
28/12/2022,01:02:04,0.001,0.0,0.0,0.0
28/12/2022,01:03:04,-0.001,0.0,0.0,0.0
28/12/2022,01:04:04,0.000,0.0,0.0,0.0
28/12/2022,01:05:04,0.000,0.0,0.0,0.0
28/12/2022,01:06:05,0.001,0.0,0.0,0.0
28/12/2022,01:07:03,0.000,0.0,0.0,0.0
28/12/2022,01:08:03,0.000,0.0,0.0,0.0
28/12/2022,01:09:04,0.001,0.0,0.0,0.0
28/12/2022,01:10:03,0.001,0.0,0.0,0.0
28/12/2022,01:11:04,0.001,0.0,0.0,0.0
28/12/2022,01:12:04,0.001,0.0,0.0,0.0
28/12/2022,01:13:04,0.001,0.0,0.0,0.0
28/12/2022,01:14:04,0.000,0.0,0.0,0.0
28/12/2022,01:15:04,0.000,0.0,0.0,0.0
28/12/2022,01:16:04,0.000,0.0,0.0,0.0
28/12/2022,01:17:04,0.000,0.0,0.0,0.0
28/12/2022,01:18:04,0.001,0.0,0.0,0.0
28/12/2022,01:19:04,0.000,0.0,0.0,0.0
28/12/2022,01:20:04,-0.001,0.0,0.0,0.0
28/12/2022,01:21:03,0.000,0.0,0.0,0.0
28/12/2022,01:22:04,0.000,0.0,0.0,0.0
28/12/2022,01:23:03,0.000,0.0,0.0,0.0
28/12/2022,01:24:04,0.001,0.0,0.0,0.0
28/12/2022,01:25:04,0.000,0.0,0.0,0.0
28/12/2022,01:26:04,0.000,0.0,0.0,0.0
28/12/2022,01:27:04,0.000,0.0,0.0,0.0
28/12/2022,01:28:04,0.001,0.0,0.0,0.0
28/12/2022,01:29:04,0.000,0.0,0.0,0.0
28/12/2022,01:30:04,-0.000,0.0,0.0,0.0
28/12/2022,01:31:04,0.000,0.0,0.0,0.0
28/12/2022,01:32:04,0.000,0.0,0.0,0.0
28/12/2022,01:33:04,0.001,0.0,0.0,0.0
28/12/2022,01:34:04,-0.000,0.0,0.0,0.0
28/12/2022,01:35:04,0.000,0.0,0.0,0.0
28/12/2022,01:36:04,0.001,0.0,0.0,0.0
28/12/2022,01:37:04,0.000,0.0,0.0,0.0
28/12/2022,01:38:04,0.000,0.0,0.0,0.0
28/12/2022,01:39:04,0.000,0.0,0.0,0.0
28/12/2022,01:40:04,0.000,0.0,0.0,0.0
28/12/2022,01:41:04,0.000,0.0,0.0,0.0
28/12/2022,01:42:04,0.001,0.0,0.0,0.0
28/12/2022,01:43:04,0.000,0.0,0.0,0.0
28/12/2022,01:44:04,0.000,0.0,0.0,0.0
28/12/2022,01:45:04,0.001,0.0,0.0,0.0
28/12/2022,01:46:03,-0.000,0.0,0.0,0.0
28/12/2022,01:47:04,0.000,0.0,0.0,0.0
28/12/2022,01:48:04,-0.000,0.0,0.0,0.0
28/12/2022,01:49:04,-0.001,0.0,0.0,0.0
28/12/2022,01:50:04,0.000,0.0,0.0,0.0
28/12/2022,01:51:04,0.000,0.0,0.0,0.0
28/12/2022,01:52:04,0.000,0.0,0.0,0.0
28/12/2022,01:53:04,-0.000,0.0,0.0,0.0
28/12/2022,01:54:03,0.001,0.0,0.0,0.0
28/12/2022,01:55:04,-0.000,0.0,0.0,0.0
28/12/2022,01:56:03,-0.001,0.0,0.0,0.0
28/12/2022,01:57:04,-0.000,0.0,0.0,0.0
28/12/2022,01:58:03,-0.000,0.0,0.0,0.0
28/12/2022,01:59:04,0.000,0.0,0.0,0.0
28/12/2022,02:00:04,0.000,0.0,0.0,0.0
28/12/2022,02:01:05,-0.001,0.0,0.0,0.0
28/12/2022,02:02:04,0.001,0.0,0.0,0.0
28/12/2022,02:03:04,0.000,0.0,0.0,0.0
28/12/2022,02:04:04,0.000,0.0,0.0,0.0
28/12/2022,02:05:04,-0.001,0.0,0.0,0.0
28/12/2022,02:06:04,-0.001,0.0,0.0,0.0
28/12/2022,02:07:04,0.000,0.0,0.0,0.0
28/12/2022,02:08:04,0.000,0.0,0.0,0.0
28/12/2022,02:09:04,0.000,0.0,0.0,0.0
28/12/2022,02:10:04,-0.000,0.0,0.0,0.0
28/12/2022,02:11:04,-0.001,0.0,0.0,0.0
28/12/2022,02:12:04,-0.001,0.0,0.0,0.0
28/12/2022,02:13:04,-0.001,0.0,0.0,0.0
28/12/2022,02:14:04,-0.001,0.0,0.0,0.0
28/12/2022,02:15:04,-0.000,0.0,0.0,0.0
28/12/2022,02:16:04,0.000,0.0,0.0,0.0
28/12/2022,02:17:04,-0.000,0.0,0.0,0.0
28/12/2022,02:18:04,0.000,0.0,0.0,0.0
28/12/2022,02:19:04,0.001,0.0,0.0,0.0
28/12/2022,02:20:04,-0.000,0.0,0.0,0.0
28/12/2022,02:21:04,-0.000,0.0,0.0,0.0
28/12/2022,02:22:04,0.000,0.0,0.0,0.0
28/12/2022,02:23:33,0.000,0.0,0.0,0.0
28/12/2022,02:25:04,-0.000,0.0,0.0,0.0
28/12/2022,02:26:04,0.001,0.0,0.0,0.0
28/12/2022,02:27:04,0.000,0.0,0.0,0.0
28/12/2022,02:28:04,0.000,0.0,0.0,0.0
28/12/2022,02:29:04,0.000,0.0,0.0,0.0
28/12/2022,02:30:05,-0.001,0.0,0.0,0.0
28/12/2022,02:31:05,0.000,0.0,0.0,0.0
28/12/2022,02:32:07,0.000,0.0,0.0,0.0
28/12/2022,02:33:05,0.001,0.0,0.0,0.0
28/12/2022,02:34:04,0.001,0.0,0.0,0.0
28/12/2022,02:35:04,-0.000,0.0,0.0,0.0
28/12/2022,02:36:04,-0.001,0.0,0.0,0.0
28/12/2022,02:37:04,-0.000,0.0,0.0,0.0
28/12/2022,02:38:04,0.001,0.0,0.0,0.0
28/12/2022,02:39:04,0.001,0.0,0.0,0.0
28/12/2022,02:40:04,-0.001,0.0,0.0,0.0
28/12/2022,02:41:04,0.000,0.0,0.0,0.0
28/12/2022,02:42:04,0.000,0.0,0.0,0.0
28/12/2022,02:43:04,0.000,0.0,0.0,0.0
28/12/2022,02:44:04,0.000,0.0,0.0,0.0
28/12/2022,02:45:04,0.000,0.0,0.0,0.0
28/12/2022,02:46:04,0.000,0.0,0.0,0.0
28/12/2022,02:47:04,0.000,0.0,0.0,0.0
28/12/2022,02:48:05,0.000,0.0,0.0,0.0
28/12/2022,02:49:04,-0.001,0.0,0.0,0.0
28/12/2022,02:50:05,0.001,0.0,0.0,0.0
28/12/2022,02:51:05,0.000,0.0,0.0,0.0
28/12/2022,02:52:04,0.001,0.0,0.0,0.0
28/12/2022,02:53:04,0.001,0.0,0.0,0.0
28/12/2022,02:54:04,0.001,0.0,0.0,0.0
28/12/2022,02:55:04,0.001,0.0,0.0,0.0
28/12/2022,02:56:04,0.001,0.0,0.0,0.0
28/12/2022,02:57:04,0.000,0.0,0.0,0.0
28/12/2022,02:58:04,0.000,0.0,0.0,0.0
28/12/2022,02:59:04,0.000,0.0,0.0,0.0
28/12/2022,03:00:04,0.000,0.0,0.0,0.0
28/12/2022,03:01:04,0.001,0.0,0.0,0.0
28/12/2022,03:02:04,-0.001,0.0,0.0,0.0
28/12/2022,03:03:05,-0.001,0.0,0.0,0.0
28/12/2022,03:04:04,0.000,0.0,0.0,0.0
28/12/2022,03:05:04,0.000,0.0,0.0,0.0
28/12/2022,03:06:04,0.001,0.0,0.0,0.0
28/12/2022,03:07:04,0.000,0.0,0.0,0.0
28/12/2022,03:08:04,-0.001,0.0,0.0,0.0
28/12/2022,03:09:04,0.000,0.0,0.0,0.0
28/12/2022,03:10:04,0.000,0.0,0.0,0.0
28/12/2022,03:11:04,0.000,0.0,0.0,0.0
28/12/2022,03:12:05,0.001,0.0,0.0,0.0
28/12/2022,03:13:04,-0.001,0.0,0.0,0.0
28/12/2022,03:14:04,0.000,0.0,0.0,0.0
28/12/2022,03:15:04,0.000,0.0,0.0,0.0
28/12/2022,03:16:04,0.000,0.0,0.0,0.0
28/12/2022,03:17:04,-0.001,0.0,0.0,0.0
28/12/2022,03:18:04,0.001,0.0,0.0,0.0
28/12/2022,03:19:04,0.000,0.0,0.0,0.0
28/12/2022,03:20:04,0.001,0.0,0.0,0.0
28/12/2022,03:21:05,0.000,0.0,0.0,0.0
28/12/2022,03:22:04,0.000,0.0,0.0,0.0
28/12/2022,03:23:04,0.000,0.0,0.0,0.0
28/12/2022,03:24:04,-0.000,0.0,0.0,0.0
28/12/2022,03:25:04,0.000,0.0,0.0,0.0
28/12/2022,03:26:05,-0.001,0.0,0.0,0.0
28/12/2022,03:27:04,0.001,0.0,0.0,0.0
28/12/2022,03:28:04,0.000,0.0,0.0,0.0
28/12/2022,03:29:04,-0.001,0.0,0.0,0.0
28/12/2022,03:30:05,0.000,0.0,0.0,0.0
28/12/2022,03:31:04,0.000,0.0,0.0,0.0
28/12/2022,03:32:04,-0.001,0.0,0.0,0.0
28/12/2022,03:33:04,0.000,0.0,0.0,0.0
28/12/2022,03:34:04,0.001,0.0,0.0,0.0
28/12/2022,03:35:04,0.000,0.0,0.0,0.0
28/12/2022,03:36:04,0.000,0.0,0.0,0.0
28/12/2022,03:37:05,0.000,0.0,0.0,0.0
28/12/2022,03:38:04,0.001,0.0,0.0,0.0
28/12/2022,03:39:04,-0.001,0.0,0.0,0.0
28/12/2022,03:40:04,0.000,0.0,0.0,0.0
28/12/2022,03:41:05,0.000,0.0,0.0,0.0
28/12/2022,03:42:04,0.000,0.0,0.0,0.0
28/12/2022,03:43:04,0.000,0.0,0.0,0.0
28/12/2022,03:44:04,0.001,0.0,0.0,0.0
28/12/2022,03:45:04,0.001,0.0,0.0,0.0
28/12/2022,03:46:04,0.001,0.0,0.0,0.0
28/12/2022,03:47:04,0.000,0.0,0.0,0.0
28/12/2022,03:48:04,0.000,0.0,0.0,0.0
28/12/2022,03:49:04,0.000,0.0,0.0,0.0
28/12/2022,03:50:04,0.001,0.0,0.0,0.0
28/12/2022,03:51:05,0.000,0.0,0.0,0.0
28/12/2022,03:52:04,0.001,0.0,0.0,0.0
28/12/2022,03:53:04,-0.001,0.0,0.0,0.0
28/12/2022,03:54:04,0.000,0.0,0.0,0.0
28/12/2022,03:55:04,0.000,0.0,0.0,0.0
28/12/2022,03:56:04,0.000,0.0,0.0,0.0
28/12/2022,03:57:04,0.000,0.0,0.0,0.0
28/12/2022,03:58:04,0.000,0.0,0.0,0.0
28/12/2022,03:59:04,0.000,0.0,0.0,0.0
28/12/2022,04:00:04,-0.001,0.0,0.0,0.0
28/12/2022,04:01:04,-0.001,0.0,0.0,0.0
28/12/2022,04:02:04,0.000,0.0,0.0,0.0
28/12/2022,04:03:04,0.000,0.0,0.0,0.0
28/12/2022,04:04:04,0.000,0.0,0.0,0.0
28/12/2022,04:05:04,0.000,0.0,0.0,0.0
28/12/2022,04:06:04,-0.000,0.0,0.0,0.0
28/12/2022,04:07:05,0.000,0.0,0.0,0.0
28/12/2022,04:08:04,0.001,0.0,0.0,0.0
28/12/2022,04:09:04,0.001,0.0,0.0,0.0
28/12/2022,04:10:04,0.000,0.0,0.0,0.0
28/12/2022,04:11:04,0.000,0.0,0.0,0.0
28/12/2022,04:12:05,0.000,0.0,0.0,0.0
28/12/2022,04:13:04,0.000,0.0,0.0,0.0
28/12/2022,04:14:04,0.001,0.0,0.0,0.0
28/12/2022,04:15:04,0.001,0.0,0.0,0.0
28/12/2022,04:16:04,0.001,0.0,0.0,0.0
28/12/2022,04:17:05,-0.001,0.0,0.0,0.0
28/12/2022,04:18:04,-0.000,0.0,0.0,0.0
28/12/2022,04:19:04,0.002,0.0,0.0,0.0
28/12/2022,04:20:04,0.000,0.0,0.0,0.0
28/12/2022,04:21:04,0.000,0.0,0.0,0.0
28/12/2022,04:22:04,0.000,0.0,0.0,0.0
28/12/2022,04:23:04,0.001,0.0,0.0,0.0
28/12/2022,04:24:04,0.000,0.0,0.0,0.0
28/12/2022,04:25:05,-0.000,0.0,0.0,0.0
28/12/2022,04:26:04,0.000,0.0,0.0,0.0
28/12/2022,04:27:04,0.000,0.0,0.0,0.0
28/12/2022,04:28:04,-0.000,0.0,0.0,0.0
28/12/2022,04:29:04,-0.001,0.0,0.0,0.0
28/12/2022,04:30:04,0.000,0.0,0.0,0.0
28/12/2022,04:31:04,0.000,0.0,0.0,0.0
28/12/2022,04:32:04,0.000,0.0,0.0,0.0
28/12/2022,04:33:05,0.001,0.0,0.0,0.0
28/12/2022,04:34:04,0.000,0.0,0.0,0.0
28/12/2022,04:35:04,0.001,0.0,0.0,0.0
28/12/2022,04:36:04,0.000,0.0,0.0,0.0
28/12/2022,04:37:04,0.001,0.0,0.0,0.0
28/12/2022,04:38:05,0.001,0.0,0.0,0.0
28/12/2022,04:39:04,0.001,0.0,0.0,0.0
28/12/2022,04:40:04,0.000,0.0,0.0,0.0
28/12/2022,04:41:05,0.001,0.0,0.0,0.0
28/12/2022,04:42:04,0.000,0.0,0.0,0.0
28/12/2022,04:43:05,0.000,0.0,0.0,0.0
28/12/2022,04:44:04,0.000,0.0,0.0,0.0
28/12/2022,04:45:04,-0.001,0.0,0.0,0.0
28/12/2022,04:46:04,0.001,0.0,0.0,0.0
28/12/2022,04:47:04,0.000,0.0,0.0,0.0
28/12/2022,04:48:04,0.001,0.0,0.0,0.0
28/12/2022,04:49:04,0.001,0.0,0.0,0.0
28/12/2022,04:50:04,-0.000,0.0,0.0,0.0
28/12/2022,04:51:04,0.000,0.0,0.0,0.0
28/12/2022,04:52:05,0.000,0.0,0.0,0.0
28/12/2022,04:53:04,0.001,0.0,0.0,0.0
28/12/2022,04:54:04,0.001,0.0,0.0,0.0
28/12/2022,04:55:05,0.000,0.0,0.0,0.0
28/12/2022,04:56:04,0.000,0.0,0.0,0.0
28/12/2022,04:57:05,-0.000,0.0,0.0,0.0
28/12/2022,04:58:04,0.000,0.0,0.0,0.0
28/12/2022,04:59:05,0.000,0.0,0.0,0.0
28/12/2022,05:00:04,0.000,0.0,0.0,0.0
28/12/2022,05:01:04,0.001,0.0,0.0,0.0
28/12/2022,05:02:05,0.000,0.0,0.0,0.0
28/12/2022,05:03:04,0.000,0.0,0.0,0.0
28/12/2022,05:04:04,0.001,0.0,0.0,0.0
28/12/2022,05:05:05,-0.000,0.0,0.0,0.0
28/12/2022,05:06:04,0.001,0.0,0.0,0.0
28/12/2022,05:07:05,0.001,0.0,0.0,0.0
28/12/2022,05:08:04,0.001,0.0,0.0,0.0
28/12/2022,05:09:34,0.001,0.0,0.0,0.0
28/12/2022,05:11:04,0.000,0.0,0.0,0.0
28/12/2022,05:12:04,0.000,0.0,0.0,0.0
28/12/2022,05:13:05,0.000,0.0,0.0,0.0
28/12/2022,05:14:04,-0.000,0.0,0.0,0.0
28/12/2022,05:15:04,-0.001,0.0,0.0,0.0
28/12/2022,05:16:05,0.000,0.0,0.0,0.0
28/12/2022,05:17:04,-0.000,0.0,0.0,0.0
28/12/2022,05:18:04,0.001,0.0,0.0,0.0
28/12/2022,05:19:04,-0.001,0.0,0.0,0.0
28/12/2022,05:20:04,0.001,0.0,0.0,0.0
28/12/2022,05:21:05,0.001,0.0,0.0,0.0
28/12/2022,05:22:04,-0.000,0.0,0.0,0.0
28/12/2022,05:23:04,0.000,0.0,0.0,0.0
28/12/2022,05:24:04,0.001,0.0,0.0,0.0
28/12/2022,05:25:04,-0.000,0.0,0.0,0.0
28/12/2022,05:26:04,0.001,0.0,0.0,0.0
28/12/2022,05:27:04,-0.001,0.0,0.0,0.0
28/12/2022,05:28:05,0.000,0.0,0.0,0.0
28/12/2022,05:29:04,0.001,0.0,0.0,0.0
28/12/2022,05:30:04,0.000,0.0,0.0,0.0
28/12/2022,05:31:04,0.000,0.0,0.0,0.0
28/12/2022,05:32:04,0.000,0.0,0.0,0.0
28/12/2022,05:33:05,0.000,0.0,0.0,0.0
28/12/2022,05:34:05,-0.000,0.0,0.0,0.0
28/12/2022,05:35:04,0.000,0.0,0.0,0.0
28/12/2022,05:36:04,0.001,0.0,0.0,0.0
28/12/2022,05:37:04,0.000,0.0,0.0,0.0
28/12/2022,05:38:04,0.000,0.0,0.0,0.0
28/12/2022,05:39:04,-0.001,0.0,0.0,0.0
28/12/2022,05:40:04,0.001,0.0,0.0,0.0
28/12/2022,05:41:05,0.000,0.0,0.0,0.0
28/12/2022,05:42:04,0.001,0.0,0.0,0.0
28/12/2022,05:43:04,0.001,0.0,0.0,0.0
28/12/2022,05:44:04,-0.000,0.0,0.0,0.0
28/12/2022,05:45:04,0.001,0.0,0.0,0.0
28/12/2022,05:46:04,0.000,0.0,0.0,0.0
28/12/2022,05:47:04,0.000,0.0,0.0,0.0
28/12/2022,05:48:05,0.000,0.0,0.0,0.0
28/12/2022,05:49:04,0.000,0.0,0.0,0.0
28/12/2022,05:50:04,0.000,0.0,0.0,0.0
28/12/2022,05:51:05,-0.001,0.0,0.0,0.0
28/12/2022,05:52:04,-0.001,0.0,0.0,0.0
28/12/2022,05:53:05,0.000,0.0,0.0,0.0
28/12/2022,05:54:04,-0.001,0.0,0.0,0.0
28/12/2022,05:55:04,-0.001,0.0,0.0,0.0
28/12/2022,05:56:05,0.000,0.0,0.0,0.0
28/12/2022,05:57:05,0.000,0.0,0.0,0.0
28/12/2022,05:58:04,0.001,0.0,0.0,0.0
28/12/2022,05:59:05,0.000,0.0,0.0,0.0
28/12/2022,06:00:04,0.000,0.0,0.0,0.0
28/12/2022,06:01:04,0.000,0.0,0.0,0.0
28/12/2022,06:02:04,0.000,0.0,0.0,0.0
28/12/2022,06:03:04,-0.001,0.0,0.0,0.0
28/12/2022,06:04:04,-0.001,0.0,0.0,0.0
28/12/2022,06:05:04,-0.000,0.0,0.0,0.0
28/12/2022,06:06:04,0.000,0.0,0.0,0.0
28/12/2022,06:07:04,0.000,0.0,0.0,0.0
28/12/2022,06:08:04,0.001,0.0,0.0,0.0
28/12/2022,06:09:04,0.000,0.0,0.0,0.0
28/12/2022,06:10:04,0.000,0.0,0.0,0.0
28/12/2022,06:11:05,0.000,0.0,0.0,0.0
28/12/2022,06:12:04,0.000,0.0,0.0,0.0
28/12/2022,06:13:05,-0.000,0.0,0.0,0.0
28/12/2022,06:14:04,0.001,0.0,0.0,0.0
28/12/2022,06:15:04,0.001,0.0,0.0,0.0
28/12/2022,06:16:05,0.000,0.0,0.0,0.0
28/12/2022,06:17:04,0.000,0.0,0.0,0.0
28/12/2022,06:18:04,0.000,0.0,0.0,0.0
28/12/2022,06:19:05,0.001,0.0,0.0,0.0
28/12/2022,06:20:04,-0.001,0.0,0.0,0.0
28/12/2022,06:21:04,0.000,0.0,0.0,0.0
28/12/2022,06:22:05,0.000,0.0,0.0,0.0
28/12/2022,06:23:04,-0.000,0.0,0.0,0.0
28/12/2022,06:24:05,0.000,0.0,0.0,0.0
28/12/2022,06:25:04,0.000,0.0,0.0,0.0
28/12/2022,06:26:04,0.001,0.0,0.0,0.0
28/12/2022,06:27:05,0.000,0.0,0.0,0.0
28/12/2022,06:28:04,0.000,0.0,0.0,0.0
28/12/2022,06:29:04,-0.001,0.0,0.0,0.0
28/12/2022,06:30:05,-0.000,0.0,0.0,0.0
28/12/2022,06:31:04,0.000,0.0,0.0,0.0
28/12/2022,06:32:05,0.000,0.0,0.0,0.0
28/12/2022,06:33:05,0.001,0.0,0.0,0.0
28/12/2022,06:34:04,-0.000,0.0,0.0,0.0
28/12/2022,06:35:04,0.001,0.0,0.0,0.0
28/12/2022,06:36:04,0.000,0.0,0.0,0.0
28/12/2022,06:37:04,0.001,0.0,0.0,0.0
28/12/2022,06:38:04,0.001,0.0,0.0,0.0
28/12/2022,06:39:05,-0.000,0.0,0.0,0.0
28/12/2022,06:40:04,-0.001,0.0,0.0,0.0
28/12/2022,06:41:04,0.000,0.0,0.0,0.0
28/12/2022,06:42:04,0.000,0.0,0.0,0.0
28/12/2022,06:43:04,-0.000,0.0,0.0,0.0
28/12/2022,06:44:05,0.001,0.0,0.0,0.0
28/12/2022,06:45:04,0.001,0.0,0.0,0.0
28/12/2022,06:46:04,0.000,0.0,0.0,0.0
28/12/2022,06:47:04,0.001,0.0,0.0,0.0
28/12/2022,06:48:05,-0.001,0.0,0.0,0.0
28/12/2022,06:49:04,0.000,0.0,0.0,0.0
28/12/2022,06:50:05,-0.001,0.0,0.0,0.0
28/12/2022,06:51:04,-0.001,0.0,0.0,0.0
28/12/2022,06:52:04,0.000,0.0,0.0,0.0
28/12/2022,06:53:05,-0.000,0.0,0.0,0.0
28/12/2022,06:54:04,0.001,0.0,0.0,0.0
28/12/2022,06:55:04,-0.000,0.0,0.0,0.0
28/12/2022,06:56:04,-0.001,0.0,0.0,0.0
28/12/2022,06:57:04,0.000,0.0,0.0,0.0
28/12/2022,06:58:04,0.000,0.0,0.0,0.0
28/12/2022,06:59:05,-0.001,0.0,0.0,0.0
28/12/2022,07:00:04,-0.001,0.0,0.0,0.0
28/12/2022,07:01:04,0.000,0.0,0.0,0.0
28/12/2022,07:02:04,-0.000,0.0,0.0,0.0
28/12/2022,07:03:05,-0.000,0.0,0.0,0.0
28/12/2022,07:04:05,0.000,0.0,0.0,0.0
28/12/2022,07:05:04,0.000,0.0,0.0,0.0
28/12/2022,07:06:05,0.000,0.0,0.0,0.0
28/12/2022,07:07:04,0.000,0.0,0.0,0.0
28/12/2022,07:08:05,-0.001,0.0,0.0,0.0
28/12/2022,07:09:05,-0.001,0.0,0.0,0.0
28/12/2022,07:10:04,-0.001,0.0,0.0,0.0
28/12/2022,07:11:05,0.000,0.0,0.0,0.0
28/12/2022,07:12:04,-0.000,0.0,0.0,0.0
28/12/2022,07:13:05,-0.000,0.0,0.0,0.0
28/12/2022,07:14:04,-0.000,0.0,0.0,0.0
28/12/2022,07:15:04,0.000,0.0,0.0,0.0
28/12/2022,07:16:05,-0.000,0.0,0.0,0.0
28/12/2022,07:17:05,-0.000,0.0,0.0,0.0
28/12/2022,07:18:04,-0.000,0.0,0.0,0.0
28/12/2022,07:19:04,0.000,0.0,0.0,0.0
28/12/2022,07:20:04,0.000,0.0,0.0,0.0
28/12/2022,07:21:05,-0.000,0.0,0.0,0.0
28/12/2022,07:22:04,0.000,0.0,0.0,0.0
28/12/2022,07:23:05,0.000,0.0,0.0,0.0
28/12/2022,07:24:04,0.000,0.0,0.0,0.0
28/12/2022,07:25:05,-0.001,0.0,0.0,0.0
28/12/2022,07:26:04,-0.002,0.0,0.0,0.0
28/12/2022,07:27:05,-0.000,0.0,0.0,0.0
28/12/2022,07:28:04,0.000,0.0,0.0,0.0
28/12/2022,07:29:04,0.000,0.0,0.0,0.0
28/12/2022,07:30:05,0.000,0.0,0.0,0.0
28/12/2022,07:31:05,0.000,0.0,0.0,0.0
28/12/2022,07:32:05,0.001,0.0,0.0,0.0
28/12/2022,07:33:05,0.000,0.0,0.0,0.0
28/12/2022,07:34:04,0.001,0.0,0.0,0.0
28/12/2022,07:35:05,0.000,0.0,0.0,0.0
28/12/2022,07:36:04,-0.000,0.0,0.0,0.0
28/12/2022,07:37:04,0.000,0.0,0.0,0.0
28/12/2022,07:38:04,0.000,0.0,0.0,0.0
28/12/2022,07:39:05,-0.000,0.0,0.0,0.0
28/12/2022,07:40:04,0.000,0.0,0.0,0.0
28/12/2022,07:41:04,-0.001,0.0,0.0,0.0
28/12/2022,07:42:05,0.000,0.0,0.0,0.0
28/12/2022,07:43:05,0.001,0.0,0.0,0.0
28/12/2022,07:44:05,-0.001,0.0,0.0,0.0
28/12/2022,07:45:05,0.000,0.0,0.0,0.0
28/12/2022,07:46:04,0.001,0.0,0.0,0.0
28/12/2022,07:47:05,0.000,0.0,0.0,0.0
28/12/2022,07:48:05,0.000,0.0,0.0,0.0
28/12/2022,07:49:04,0.000,0.0,0.0,0.0
28/12/2022,07:50:05,0.000,0.0,0.0,0.0
28/12/2022,07:51:05,-0.001,0.0,0.0,0.0
28/12/2022,07:52:05,-0.000,0.0,0.0,0.0
28/12/2022,07:53:04,0.001,0.0,0.0,0.0
28/12/2022,07:54:05,0.000,0.0,0.0,0.0
28/12/2022,07:55:04,0.001,0.0,0.0,0.0
28/12/2022,07:56:04,0.001,0.0,0.0,0.0
28/12/2022,07:57:04,0.000,0.0,0.0,0.0
28/12/2022,07:58:04,-0.000,0.0,0.0,0.0
28/12/2022,07:59:05,0.000,0.0,0.0,0.0
28/12/2022,08:00:05,0.000,0.0,0.0,0.0
28/12/2022,08:01:05,0.001,0.0,0.0,0.0
28/12/2022,08:02:04,0.001,0.0,0.0,0.0
28/12/2022,08:03:04,0.001,0.0,0.0,0.0
28/12/2022,08:04:04,0.001,0.0,0.0,0.0
28/12/2022,08:05:04,0.001,0.0,0.0,0.0
28/12/2022,08:06:04,0.001,0.0,0.0,0.0
28/12/2022,08:07:05,0.001,0.0,0.0,0.0
28/12/2022,08:08:05,0.001,0.0,0.0,0.0
28/12/2022,08:09:05,0.001,0.0,0.0,0.0
28/12/2022,08:10:05,0.001,0.0,0.0,0.0
28/12/2022,08:11:05,0.001,0.0,0.0,0.0
28/12/2022,08:12:04,0.001,0.0,0.0,0.0
28/12/2022,08:13:05,0.001,0.0,0.0,0.0
28/12/2022,08:14:04,0.001,0.0,0.0,0.0
28/12/2022,08:15:04,0.001,0.0,0.0,0.0
28/12/2022,08:16:05,0.001,0.0,0.0,0.0
28/12/2022,08:17:04,0.001,0.0,0.0,0.0
28/12/2022,08:18:05,0.001,0.0,0.0,0.0
28/12/2022,08:19:04,0.002,0.0,0.0,0.0
28/12/2022,08:20:05,0.002,0.0,0.0,0.0
28/12/2022,08:21:04,0.002,0.0,0.0,0.0
28/12/2022,08:22:05,0.002,0.0,0.0,0.0
28/12/2022,08:23:05,0.002,0.0,0.0,0.0
28/12/2022,08:24:05,0.002,0.0,0.0,0.0
28/12/2022,08:25:34,0.002,0.0,0.0,0.0
28/12/2022,08:27:05,0.002,0.0,0.0,0.0
28/12/2022,08:28:04,0.002,0.0,0.0,0.0
28/12/2022,08:29:04,0.002,0.0,0.0,0.0
28/12/2022,08:30:04,0.002,0.0,0.0,0.0
28/12/2022,08:31:04,0.002,0.0,0.0,0.0
28/12/2022,08:32:05,0.002,0.0,0.0,0.0
28/12/2022,08:33:05,0.002,0.0,0.0,0.0
28/12/2022,08:34:04,0.002,0.0,0.0,0.0
28/12/2022,08:35:05,0.002,0.0,0.0,0.0
28/12/2022,08:36:05,0.002,0.0,0.0,0.0
28/12/2022,08:37:07,0.003,0.0,0.0,0.0
28/12/2022,08:38:04,0.003,0.0,0.0,0.0
28/12/2022,08:39:04,0.003,0.0,0.0,0.0
28/12/2022,08:40:05,0.002,0.0,0.0,0.0
28/12/2022,08:41:04,0.002,0.0,0.0,0.0
28/12/2022,08:42:05,0.003,0.0,0.0,0.0
28/12/2022,08:43:04,0.003,0.0,0.0,0.0
28/12/2022,08:44:05,0.003,0.0,0.0,0.0
28/12/2022,08:45:04,0.004,0.0,0.0,0.0
28/12/2022,08:46:05,0.004,0.0,0.0,0.0
28/12/2022,08:47:05,0.004,0.0,0.0,0.0
28/12/2022,08:48:05,0.004,0.0,0.0,0.0
28/12/2022,08:49:05,0.003,0.0,0.0,0.0
28/12/2022,08:50:04,0.003,0.0,0.0,0.0
28/12/2022,08:51:04,0.003,0.0,0.0,0.0
28/12/2022,08:52:04,0.003,0.0,0.0,0.0
28/12/2022,08:53:05,0.004,0.0,0.0,0.0
28/12/2022,08:54:04,0.003,0.0,0.0,0.0
28/12/2022,08:55:04,0.005,0.0,0.0,0.0
28/12/2022,08:56:05,0.006,0.0,0.0,0.0
28/12/2022,08:57:04,0.006,0.0,0.0,0.0
28/12/2022,08:58:05,0.006,0.0,0.0,0.0
28/12/2022,08:59:05,0.007,0.0,0.0,0.0
28/12/2022,09:00:05,0.007,0.0,0.0,0.0
28/12/2022,09:01:05,0.007,0.0,0.001,0.001
28/12/2022,09:02:04,0.006,0.0,0.001,0.0
28/12/2022,09:03:05,0.007,0.0,0.001,0.0
28/12/2022,09:04:05,0.007,0.0,0.001,0.0
28/12/2022,09:05:05,0.007,0.0,0.001,0.0
28/12/2022,09:06:05,0.006,0.0,0.001,0.0
28/12/2022,09:07:05,0.006,0.0,0.001,0.0
28/12/2022,09:08:04,0.006,0.0,0.001,0.0
28/12/2022,09:09:04,0.007,0.0,0.001,0.0
28/12/2022,09:10:05,0.006,0.0,0.001,0.0
28/12/2022,09:11:05,0.007,0.0,0.002,0.001
28/12/2022,09:12:05,0.006,0.0,0.002,0.0
28/12/2022,09:13:04,0.007,0.0,0.002,0.0
28/12/2022,09:14:04,0.006,0.0,0.002,0.0
28/12/2022,09:15:04,0.008,0.0,0.002,0.0
28/12/2022,09:16:04,0.007,0.0,0.002,0.0
28/12/2022,09:17:05,0.007,0.0,0.002,0.0
28/12/2022,09:18:04,0.008,0.0,0.002,0.0
28/12/2022,09:19:04,0.009,0.0,0.002,0.0
28/12/2022,09:20:05,0.007,0.0,0.003,0.001
28/12/2022,09:21:04,0.007,0.0,0.003,0.0
28/12/2022,09:22:04,0.007,0.0,0.003,0.0
28/12/2022,09:23:05,0.007,0.0,0.003,0.0
28/12/2022,09:24:05,0.006,0.0,0.003,0.0
28/12/2022,09:25:05,0.006,0.0,0.003,0.0
28/12/2022,09:26:05,0.006,0.0,0.003,0.0
28/12/2022,09:27:05,0.008,0.0,0.003,0.0
28/12/2022,09:28:04,0.006,0.0,0.003,0.0
28/12/2022,09:29:05,0.007,0.0,0.004,0.001
28/12/2022,09:30:04,0.007,0.0,0.004,0.0
28/12/2022,09:31:05,0.007,0.0,0.004,0.0
28/12/2022,09:32:04,0.007,0.0,0.004,0.0
28/12/2022,09:33:05,0.007,0.0,0.004,0.0
28/12/2022,09:34:04,0.007,0.0,0.004,0.0
28/12/2022,09:35:05,0.007,0.0,0.004,0.0
28/12/2022,09:36:05,0.008,0.0,0.004,0.0
28/12/2022,09:37:05,0.010,0.0,0.005,0.001
28/12/2022,09:38:05,0.011,0.0,0.005,0.0
28/12/2022,09:39:04,0.008,0.0,0.005,0.0
28/12/2022,09:40:05,0.009,0.0,0.005,0.0
28/12/2022,09:41:04,0.010,0.0,0.005,0.0
28/12/2022,09:42:05,0.010,0.0,0.005,0.0
28/12/2022,09:43:05,0.010,0.0,0.006,0.001
28/12/2022,09:44:05,0.012,0.0,0.006,0.0
28/12/2022,09:45:05,0.014,0.0,0.006,0.0
28/12/2022,09:46:05,0.015,0.0,0.006,0.0
28/12/2022,09:47:05,0.017,0.0,0.006,0.0
28/12/2022,09:48:05,0.018,0.0,0.007,0.001
28/12/2022,09:49:04,0.018,0.0,0.007,0.0
28/12/2022,09:50:04,0.016,0.0,0.007,0.0
28/12/2022,09:51:34,0.017,0.0,0.008,0.001
28/12/2022,09:53:05,0.018,0.0,0.008,0.0
28/12/2022,09:54:05,0.019,0.0,0.009,0.001
28/12/2022,09:55:05,0.016,0.0,0.009,0.0
28/12/2022,09:56:05,0.017,0.0,0.009,0.0
28/12/2022,09:57:05,0.016,0.0,0.009,0.0
28/12/2022,09:58:04,0.016,0.0,0.01,0.001
28/12/2022,09:59:04,0.015,0.0,0.01,0.0
28/12/2022,10:00:05,0.015,0.0,0.01,0.0
28/12/2022,10:01:05,0.016,0.0,0.01,0.0
28/12/2022,10:02:05,0.020,0.0,0.011,0.001
28/12/2022,10:03:04,0.020,0.0,0.011,0.0
28/12/2022,10:04:05,0.020,0.0,0.011,0.0
28/12/2022,10:05:04,0.020,0.0,0.012,0.001
28/12/2022,10:06:05,0.022,0.0,0.012,0.0
28/12/2022,10:07:04,0.022,0.0,0.012,0.0
28/12/2022,10:08:05,0.021,0.0,0.013,0.001
28/12/2022,10:09:05,0.021,0.0,0.013,0.0
28/12/2022,10:10:05,0.020,0.0,0.013,0.0
28/12/2022,10:11:05,0.021,0.0,0.014,0.001
28/12/2022,10:12:05,0.022,0.0,0.014,0.0
28/12/2022,10:13:05,0.020,0.0,0.014,0.0
28/12/2022,10:14:06,0.017,0.0,0.015,0.001
28/12/2022,10:15:05,0.019,0.0,0.015,0.0
28/12/2022,10:16:05,0.015,0.0,0.015,0.0
28/12/2022,10:17:05,0.015,0.0,0.016,0.001
28/12/2022,10:18:05,0.017,0.0,0.016,0.0
28/12/2022,10:19:05,0.016,0.0,0.016,0.0
28/12/2022,10:20:04,0.017,0.0,0.016,0.0
28/12/2022,10:21:05,0.016,0.0,0.017,0.001
28/12/2022,10:22:05,0.017,0.0,0.017,0.0
28/12/2022,10:23:04,0.019,0.0,0.017,0.0
28/12/2022,10:24:05,0.019,0.0,0.017,0.0
28/12/2022,10:25:05,0.022,0.0,0.018,0.001